Preview of NWS' New Version of Forecast
This preview is not operational and should not be used for support decisions.

Regional Weather Roundup (RWR)

Issued by National Weather Service (NWS)

                            
000
ASUS44 KMEG 200710
RWRTN 
TENNESSEE HOURLY STATE WEATHER ROUNDUP
NATIONAL WEATHER SERVICE MEMPHIS TN
200 AM CDT SAT APR 20 2019

TNZ002-004-019-021-049-052-054-088>092-200800-
WEST TENNESSEE
  
CITY           SKY/WX    TMP DP  RH WIND       PRES   REMARKS
MEMPHIS INTL   FAIR      50  37  61 NW12      29.78S                  
NWS MEMPHIS      N/A     48 N/A N/A MISG        N/A                   
JACKSON        CLOUDY    49  38  65 NW16G28   29.71S                  
DYERSBURG      FAIR      50  33  52 N15G26    29.75R                  
SOMERVILLE     PTCLDY    48  41  76 W5G13     29.73S                  
COVINGTON      CLEAR     48  37  66 NW14      29.75S                  
UNION CITY     CLOUDY    48  36  61 N21G30    29.69F                  
BOLIVAR        CLOUDY    48  41  76 W7G16     29.71S                  
PARIS          CLOUDY    45  41  87 NW6       29.66F                  
HUNTINGDON     CLOUDY    45  43  93 CALM      29.67S                  
LEXINGTON        N/A     45  41  87 N12G24    29.67S                  
SELMER         CLOUDY    45  43  93 NW6       29.68F                  
SAVANNAH       CLOUDY    46  43  87 NW9G20    29.68F                  
$$

TNZ008-025-027-028-033-062-065-066-200800-
NORTH MIDDLE TENNESSEE
  
CITY           SKY/WX    TMP DP  RH WIND       PRES   REMARKS
NASHVILLE      LGT RAIN  39  36  89 W6        29.61S WCI  35          
DICKSON        CLOUDY    41  39  93 N9G16     29.61S                  
PORTLAND       CLOUDY    41  41 100 VRB6G15   29.55S FOG              
CLARKSVILLE    LGT RAIN  43  38  82 NW17      29.62S                  
LEBANON        CLOUDY    39  37  93 W8G14     29.57S WCI  34          
SMYRNA         LGT RAIN  40  38  93 NW8       29.62S WCI  34          
MURFREESBORO   CLOUDY    41  39  93 NW9       29.59S                  
COOKEVILLE     CLOUDY    41  41 100 VRB6G12   29.55S FOG              
LIVINGSTON     CLOUDY    41  41 100 SW9       29.51S FOG              
GALLATIN       CLOUDY    41  39  93 VRB6G12   29.60S                  
CROSSVILLE     CLOUDY    39  38  96 VRB7      29.54S FOG     WCI  34  
ROCKWOOD       CLOUDY    41  39  93 SW9G15    29.54S                  
$$

TNZ061-075-076-078-094-096-097-200800-
SOUTH MIDDLE TENNESSEE
  
CITY           SKY/WX    TMP DP  RH WIND       PRES   REMARKS
LAWRENCEBURG   CLOUDY    41  37  87 NW9G22    29.63S                  
LEWISBURG      CLOUDY    39  39 100 VRB7G15   29.62R FOG     WCI  34  
FAYETTEVILLE   CLOUDY    41  41 100 W6        29.61S                  
TULLAHOMA      CLOUDY    39  37  93 NW8       29.59S WCI  34          
WINCHESTER     CLOUDY    41  39  93 W6        29.61S                  
MCMINNVILLE    CLOUDY    41  39  93 SW8       29.58S                  
COLUMBIA       CLOUDY    39  39 100 VRB6G12   29.62S WCI  35          
SHELBYVILLE    CLOUDY    41  39  93 NW8       29.61R                  
$$

TNZ017-018-042-046-047-200800-
NORTHEAST TENNESSEE
  
CITY           SKY/WX    TMP DP  RH WIND       PRES   REMARKS
TRI CITIES     CLOUDY    49  44  83 W10       29.51S                  
ELIZABETHTON   CLOUDY    50  45  81 W3        29.51S                  
GREENEVILLE    CLOUDY    45  43  93 W8        29.52R                  
$$

TNZ012-013-036-069-073-074-200800-
CENTRAL EAST TENNESSEE
  
CITY           SKY/WX    TMP DP  RH WIND       PRES   REMARKS
KNOXVILLE      CLOUDY    46  42  86 SW16      29.54S                  
OAK RIDGE      CLOUDY    47  42  83 VRB3      29.56S                  
DOWNTOWN KNOXV CLOUDY    48  43  81 W10       29.55S                  
GATLINBURG     CLOUDY    46  41  81 W8G14     29.54S                  
MORRISTOWN     CLOUDY    46  43  87 W10       29.52R                  
JACKSBORO      CLOUDY    46  41  81 SW9       29.55S                  
$$

TNZ083-085-099-200800-
SOUTHEAST TENNESSEE
  
CITY           SKY/WX    TMP DP  RH WIND       PRES   REMARKS
CHATTANOOGA    CLOUDY    45  38  76 SW12      29.62S                  
DAYTON         CLOUDY    46  39  76 SW13      29.58S                  
$$

SKY/WX REPORTED AS FAIR MEANS FEW OR NO CLOUDS BELOW
12 THOUSAND FEET.